Weather History for KBKL - January, 2005

Change the Weather History Date:

Saturday, January 1, 2005

  Actual Average Record
Temperature  
Mean Temperature 46 °F -  
Max Temperature 54 °F 36 °F 57 °F (2011)
Min Temperature 37 °F 26 °F 14 °F (1999)
Degree Days  
Heating Degree Days 20    
Moisture  
Dew Point 31 °F    
Average Humidity 70    
Maximum Humidity 82    
Minimum Humidity 60    
Precipitation  
Precipitation 0.00 in - - ()
Sea Level Pressure  
Sea Level Pressure 30.43 in    
Wind  
Wind Speed 9 mph (NNE)    
Max Wind Speed 14 mph    
Max Gust Speed -    
Visibility 9 miles    
Events      
Averages and records for this station are not official NWS values.
T = Trace of Precipitation, MM = Missing Value Source: NWS Daily Summary

Daily Weather History Graph

Daily Weather History Graph

Search for Another Location

Airport or City:

Trip Planner

Search our weather history database for the weather conditions in past years. The results will help you decide how hot, cold, wet, or windy it might be!

Date:

Astronomy

Jan. 01, 2005 Rise Set
Actual Time 7:53 AM EST 5:07 PM EST
Civil Twilight 7:22 AM EST 5:39 PM EST
Nautical Twilight 6:47 AM EST 6:13 PM EST
Astronomical Twilight 6:13 AM EST 6:47 PM EST
Moon 11:01 PM EST (1/1) 11:28 AM EST (1/1)
Length of Visible Light 10h 17m
Length of Day
9h 14m
Waning Gibbous, 70% of the Moon is Illuminated
Jan 1
Waning Gibbous
Jan 3
Last Quarter
Jan 10
New
Jan 17
First Quarter
Jan 25
Full

Hourly Weather History & Observations

Time (EST) Temp. Windchill Dew Point Humidity Pressure Visibility Wind Dir Wind Speed Gust Speed Precip Events Conditions
12:53 AM 54.0 °F - 46.0 °F 75% 30.22 in 6.0 mi WSW 13.8 mph - N/A   Haze
1:53 AM 48.0 °F - 41.0 °F 77% 30.25 in 6.0 mi West 12.7 mph - N/A   Haze
2:53 AM 43.0 °F 38.2 °F 37.9 °F 82% 30.29 in 5.0 mi SW 8.1 mph - N/A   Haze
3:03 AM 42.8 °F 38.0 °F 37.4 °F 81% 30.28 in 5.0 mi SW 8.1 mph - N/A   Haze
3:53 AM 39.9 °F 34.5 °F 33.1 °F 77% 30.31 in 10.0 mi WSW 8.1 mph - N/A   Partly Cloudy
4:53 AM 37.9 °F 32.7 °F 32.0 °F 79% 30.33 in 10.0 mi WSW 6.9 mph - N/A   Clear
5:53 AM 37.9 °F 33.5 °F 30.9 °F 76% 30.36 in 10.0 mi NW 5.8 mph - N/A   Clear
6:53 AM 37.9 °F 34.4 °F 28.9 °F 70% 30.40 in 10.0 mi NNW 4.6 mph - N/A   Clear
7:53 AM 37.0 °F 31.6 °F 30.0 °F 76% 30.43 in 10.0 mi North 6.9 mph - N/A   Clear
8:53 AM 37.9 °F 32.7 °F 28.9 °F 70% 30.45 in 10.0 mi North 6.9 mph - N/A   Clear
9:53 AM 39.9 °F 34.5 °F 30.0 °F 68% 30.48 in 10.0 mi NE 8.1 mph - N/A   Clear
10:53 AM 41.0 °F 35.8 °F 28.9 °F 62% 30.51 in 10.0 mi NNE 8.1 mph - N/A   Clear
11:53 AM 42.1 °F 36.6 °F 30.0 °F 62% 30.51 in 10.0 mi North 9.2 mph - N/A   Partly Cloudy
12:53 PM 42.1 °F 36.1 °F 28.9 °F 60% 30.48 in 10.0 mi NNE 10.4 mph - N/A   Partly Cloudy
1:53 PM 42.1 °F 37.1 °F 28.9 °F 60% 30.50 in 10.0 mi NNE 8.1 mph - N/A   Clear
2:53 PM 37.9 °F 30.9 °F 28.0 °F 68% 30.50 in 10.0 mi NE 10.4 mph - N/A   Clear
3:53 PM 37.9 °F 29.6 °F 28.9 °F 70% 30.50 in 10.0 mi NNE 13.8 mph - N/A   Clear
4:53 PM 37.0 °F 28.9 °F 28.9 °F 73% 30.52 in 10.0 mi NE 12.7 mph - N/A   Partly Cloudy
5:53 PM 37.0 °F 29.3 °F 30.0 °F 76% 30.51 in 10.0 mi NNE 11.5 mph - N/A   Overcast
6:53 PM 37.0 °F 28.5 °F 28.9 °F 73% 30.51 in 10.0 mi NE 13.8 mph - N/A   Overcast
7:53 PM 39.0 °F 34.0 °F 28.0 °F 65% 30.51 in 10.0 mi NE 6.9 mph - N/A   Mostly Cloudy
8:53 PM 39.0 °F 34.0 °F 28.0 °F 65% 30.48 in 10.0 mi NE 6.9 mph - N/A   Scattered Clouds
9:31 PM 37.4 °F 32.8 °F 28.4 °F 70% 30.47 in 10.0 mi East 5.8 mph - N/A   Mostly Cloudy
9:53 PM 39.0 °F 35.7 °F 28.0 °F 65% 30.47 in 10.0 mi ENE 4.6 mph - N/A   Overcast
10:34 PM 41.0 °F 37.1 °F 28.4 °F 61% 30.44 in 10.0 mi ENE 5.8 mph - N/A   Mostly Cloudy
10:53 PM 39.9 °F 36.7 °F 30.0 °F 68% 30.45 in 10.0 mi NE 4.6 mph - N/A   Overcast
11:05 PM 39.2 °F 34.2 °F 30.2 °F 70% 30.43 in 10.0 mi ENE 6.9 mph - N/A   Overcast
11:53 PM 42.1 °F - 28.9 °F 60% 30.43 in 10.0 mi Calm Calm - N/A   Overcast